GW6017 Weather Reports


time (UTC)temp
F
wind
direction
speed
knots
gust
knots
rain 1hr
in
rain 24hr
in
rain mn
in
humidity
%
barometer
mb
20260506013518 66 90 10.4 16.5 0.00 0.00 0.00 49 1022.9
20260506013007 65 90 9.6 14.8 0.00 0.00 0.00 49 1022.9
20260506012517 65 90 11.3 14.8 0.00 0.00 0.00 50 1023.2
20260506012038 65 90 9.6 14.8 0.00 0.00 0.00 50 1023.2
20260506011518 64 90 10.4 17.4 0.00 0.00 0.00 51 1023.1
20260506011017 64 90 9.6 14.8 0.00 0.00 0.00 52 1023.1
20260506010517 63 90 8.7 14.8 0.00 0.00 0.00 54 1023.1
20260506010008 62 90 7.0 11.3 0.00 0.00 0.00 55 1023.0
20260506005600 61 90 7.0 11.3 0.00 0.00 0.00 57 1023.0
20260506005018 61 90 7.0 10.4 0.00 0.00 0.00 58 1022.9
20260506004518 61 90 7.0 9.6 0.00 0.00 0.00 58 1022.8
20260506004018 60 90 7.8 12.2 0.00 0.00 0.00 59 1022.9
20260506003517 60 90 7.8 13.0 0.00 0.00 0.00 59 1022.8
20260506003007 59 90 7.0 10.4 0.00 0.00 0.00 59 1022.6
20260506002539 59 90 8.7 13.0 0.00 0.00 0.00 60 1022.7
20260506002038 59 90 7.8 11.3 0.00 0.00 0.00 60 1022.7
20260506001538 58 90 8.7 13.0 0.00 0.00 0.00 61 1022.6
20260506001017 58 90 9.6 13.9 0.00 0.00 0.00 61 1022.6
20260506000518 58 68 9.6 13.9 0.00 0.00 0.00 61 1022.7
20260506000006 0 0.0 0.0 0.00 0.00 0.00
20260505233518 56 68 10.4 14.8 0.00 0.00 0.00 63 1022.0
20260505233013 55 68 9.6 13.0 0.00 0.00 0.00 64 1021.9
20260505232518 55 68 9.6 13.0 0.00 0.00 0.00 65 1021.9
20260505232038 54 68 7.8 10.4 0.00 0.00 0.00 65 1022.0
20260505231518 54 68 8.7 12.2 0.00 0.00 0.00 65 1021.9
20260505231018 54 68 7.8 10.4 0.00 0.00 0.00 66 1021.7
20260505230539 54 68 7.8 10.4 0.00 0.00 0.00 66 1021.7
20260505230007 53 68 7.0 9.6 0.00 0.00 0.00 67 1021.6
20260505225518 53 68 7.0 9.6 0.00 0.00 0.00 67 1021.5
20260505225018 52 68 7.8 10.4 0.00 0.00 0.00 67 1021.5
20260505224518 53 68 7.8 9.6 0.00 0.00 0.00 67 1021.4
20260505224018 53 68 6.1 8.7 0.00 0.00 0.00 66 1021.6
20260505223559 53 68 6.1 7.8 0.00 0.00 0.00 65 1021.5
20260505223028 53 68 7.0 9.6 0.00 0.00 0.00 65 1021.5
20260505222518 54 90 7.0 9.6 0.00 0.00 0.00 65 1021.5
20260505222018 54 90 7.0 9.6 0.00 0.00 0.00 64 1021.4
20260505221518 54 90 7.0 10.4 0.00 0.00 0.00 64 1021.3
20260505221018 53 68 7.8 10.4 0.00 0.00 0.00 65 1021.2
20260505220518 53 90 7.0 9.6 0.00 0.00 0.00 65 1021.2
20260505220006 53 90 7.0 9.6 0.00 0.00 0.00 65 1021.2
20260505215519 53 90 6.1 9.6 0.00 0.00 0.00 65 1021.1
20260505215018 53 90 6.1 8.7 0.00 0.00 0.00 64 1021.1
20260505214517 53 90 6.1 7.8 0.00 0.00 0.00 64 1021.1
20260505214038 53 90 5.2 7.8 0.00 0.00 0.00 64 1020.8
20260505213518 53 90 4.3 6.1 0.00 0.00 0.00 64 1020.7
20260505213009 53 90 5.2 9.6 0.00 0.00 0.00 64 1020.7
20260505212517 53 90 6.1 8.7 0.00 0.00 0.00 64 1020.8
20260505212018 53 113 4.3 6.1 0.00 0.00 0.00 64 1020.8
20260505211517 53 113 4.3 7.0 0.00 0.00 0.00 64 1020.7
20260505211018 53 113 4.3 7.0 0.00 0.00 0.00 64 1020.7
20260505210518 53 90 5.2 7.0 0.00 0.00 0.00 64 1020.7
20260505210006 53 90 3.5 6.1 0.00 0.00 0.00 64 1020.7
20260505205538 53 90 3.5 6.1 0.00 0.00 0.00 64
20260505205038 53 90 3.5 5.2 0.00 0.00 0.00 64
20260505204538 53 90 2.6 5.2 0.00 0.00 0.00 64
20260505204017 53 90 2.6 5.2 0.00 0.00 0.00 62
20260505203518 54 90 3.5 6.1 0.00 0.00 0.00 61
20260505203008 54 113 2.6 6.1 0.00 0.00 0.00 61
20260505202518 54 90 3.5 7.0 0.00 0.00 0.00 61
20260505202018 54 113 2.6 5.2 0.00 0.00 0.00 60
20260505201517 55 90 4.3 6.1 0.00 0.00 0.00 60
20260505201038 55 90 4.3 6.1 0.00 0.00 0.00 60
20260505200518 55 90 4.3 7.0 0.00 0.00 0.00 60
20260505200006 55 90 3.5 7.0 0.00 0.00 0.00 59
20260505195518 55 90 3.5 7.0 0.00 0.00 0.00 58
20260505195018 56 90 5.2 7.8 0.00 0.00 0.00 58
20260505194517 56 90 5.2 7.8 0.00 0.00 0.00 58
20260505194018 56 90 5.2 7.8 0.00 0.00 0.00 57
20260505193517 56 90 6.1 9.6 0.00 0.00 0.00 56
20260505193009 57 90 6.1 7.8 0.00 0.00 0.00 56
20260505192517 57 90 6.1 8.7 0.00 0.00 0.00 56
20260505192038 57 90 7.0 9.6 0.00 0.00 0.00 56
20260505191517 56 90 6.1 8.7 0.00 0.00 0.00 57
20260505191017 56 90 6.1 7.8 0.00 0.00 0.00 57
20260505190517 56 90 4.3 7.0 0.00 0.00 0.00 57
20260505190006 56 90 5.2 7.8 0.00 0.00 0.00 56
20260505185517 57 90 6.1 8.7 0.00 0.00 0.00 56
20260505185038 57 90 4.3 7.0 0.00 0.00 0.00 56
20260505184519 57 90 5.2 7.8 0.00 0.00 0.00 56
20260505184017 56 90 4.3 8.7 0.00 0.00 0.00 56
20260505183517 56 90 6.1 7.8 0.00 0.00 0.00 57
20260505183005 56 90 6.1 8.7 0.00 0.00 0.00 57
20260505182517 56 90 6.1 7.8 0.00 0.00 0.00 57
20260505182058 56 90 6.1 8.7 0.00 0.00 0.00 57
20260505181517 56 68 7.0 10.4 0.00 0.00 0.00 57
20260505181017 56 68 7.8 10.4 0.00 0.00 0.00 57
20260505180517 56 90 7.0 9.6 0.00 0.00 0.00 57
20260505180008 56 90 7.0 9.6 0.00 0.00 0.00 57
20260505175517 56 90 6.1 8.7 0.00 0.00 0.00 58
20260505175017 56 90 6.1 8.7 0.00 0.00 0.00 57
20260505174517 57 90 5.2 8.7 0.00 0.00 0.00 56
20260505174038 56 113 3.5 7.0 0.00 0.00 0.00 58
20260505173517 56 135 3.5 7.0 0.00 0.00 0.00 58
20260505173011 56 135 3.5 6.1 0.00 0.00 0.00 57
20260505172517 56 135 3.5 6.1 0.00 0.00 0.00 56
20260505172017 56 135 3.5 6.1 0.00 0.00 0.00 56
20260505171517 56 135 3.5 7.0 0.00 0.00 0.00 56
20260505171017 57 135 4.3 7.8 0.00 0.00 0.00 55
20260505170517 57 135 4.3 7.8 0.00 0.00 0.00 55
20260505170007 57 135 4.3 7.0 0.00 0.00 0.00 55
20260505165519 57 135 4.3 7.0 0.00 0.00 0.00 54 1020.6
20260505165038 57 135 2.6 6.1 0.00 0.00 0.00 54 1020.6
20260505164519 57 135 2.6 6.1 0.00 0.00 0.00 53 1020.6
20260505164019 57 135 4.3 7.0 0.00 0.00 0.00 53 1020.6
20260505163539 57 135 3.5 6.1 0.00 0.00 0.00 52 1020.5
20260505163029 58 135 2.6 4.3 0.00 0.00 0.00 52 1020.4
20260505162519 58 135 3.5 5.2 0.00 0.00 0.00 52 1020.4
20260505162040 58 135 3.5 5.2 0.00 0.00 0.00 51 1020.2
20260505161519 58 135 3.5 6.1 0.00 0.00 0.00 51 1020.2
20260505161019 58 158 3.5 5.2 0.00 0.00 0.00 51 1020.1
20260505160519 58 158 2.6 6.1 0.00 0.00 0.00 51 1020.1
20260505153008 61 158 1.7 4.3 0.00 0.00 0.00 47 1020.1
20260505152518 62 135 3.5 6.1 0.00 0.00 0.00 45 1020.1
20260505152018 63 113 2.6 5.2 0.00 0.00 0.00 44 1020.1
20260505151518 63 113 5.2 7.8 0.00 0.00 0.00 43 1020.1
20260505151018 62 113 5.2 7.8 0.00 0.00 0.00 44 1020.1
20260505150519 60 113 1.7 6.1 0.00 0.00 0.00 48 1020.1
20260505140518 61 158 2.6 5.2 0.00 0.00 0.00 47 1020.2
20260505125018 64 135 2.6 6.1 0.00 0.00 0.00 44 1019.9
20260505124518 64 135 1.7 3.5 0.00 0.00 0.00 44 1019.8
20260505124018 64 135 1.7 3.5 0.00 0.00 0.00 44 1019.8
20260505123518 64 135 1.7 3.5 0.00 0.00 0.00 44 1019.8
20260505123027 63 158 1.7 3.5 0.00 0.00 0.00 44 1019.9
20260505122518 64 158 0.9 2.6 0.00 0.00 0.00 44 1019.7
20260505122017 64 158 0.9 2.6 0.00 0.00 0.00 44 1019.7
20260505121518 64 135 1.7 2.6 0.00 0.00 0.00 43 1019.7
20260505121018 64 135 2.6 3.5 0.00 0.00 0.00 43 1019.6
20260505120518 65 135 2.6 4.3 0.00 0.00 0.00 43 1019.6
20260505120007 65 135 2.6 5.2 0.00 0.00 0.00 43 1019.6
20260505115517 65 135 2.6 5.2 0.00 0.00 0.00 42 1019.5
20260505115018 65 135 2.6 4.3 0.00 0.00 0.00 42 1019.3
20260505114518 65 113 1.7 3.5 0.00 0.00 0.00 42 1019.4
20260505114018 66 135 1.7 3.5 0.00 0.00 0.00 41 1019.3
20260505113517 66 135 2.6 5.2 0.00 0.00 0.00 41 1019.2
20260505113006 66 135 2.6 6.1 0.00 0.00 0.00 41 1019.2
20260505112517 67 135 1.7 3.5 0.00 0.00 0.00 40 1019.1
20260505112019 67 135 1.7 3.5 0.00 0.00 0.00 40 1019.3
20260505111517 67 135 2.6 4.3 0.00 0.00 0.00 40 1019.2
20260505111018 68 135 1.7 3.5 0.00 0.00 0.00 39 1019.2
20260505110517 68 135 2.6 5.2 0.00 0.00 0.00 39 1019.2
20260505102017 70 113 1.7 3.5 0.00 0.00 0.00 36 1018.8
20260505101517 71 113 1.7 5.2 0.00 0.00 0.00 36 1018.9
20260505101018 71 113 1.7 3.5 0.00 0.00 0.00 35 1018.8
20260505100517 72 113 2.6 5.2 0.00 0.00 0.00 35 1018.9
20260505100006 72 113 2.6 5.2 0.00 0.00 0.00 34 1018.8
20260505095518 72 113 3.5 7.0 0.00 0.00 0.00 33 1018.8
20260505095017 71 113 2.6 6.1 0.00 0.00 0.00 34 1018.7
20260505094517 72 113 1.7 5.2 0.00 0.00 0.00 33 1018.7
20260505094038 73 90 3.5 6.1 0.00 0.00 0.00 32 1018.6
20260505093517 73 90 3.5 6.1 0.00 0.00 0.00 31 1018.6
20260505093007 73 90 4.3 6.1 0.00 0.00 0.00 31 1018.7
20260505092518 74 90 4.3 6.1 0.00 0.00 0.00 30 1018.6
20260505092017 74 90 3.5 6.1 0.00 0.00 0.00 29 1018.6
20260505091519 75 90 3.5 6.1 0.00 0.00 0.00 28 1018.6
20260505091017 75 90 3.5 7.0 0.00 0.00 0.00 28 1018.5
20260505090517 76 90 5.2 8.7 0.00 0.00 0.00 27 1018.6
20260505090007 76 90 5.2 7.8 0.00 0.00 0.00 27 1018.6
20260505085517 76 90 5.2 8.7 0.00 0.00 0.00 28 1018.6
20260505085017 76 90 5.2 7.8 0.00 0.00 0.00 28 1018.5
20260505084202 0 0.0 0.0 0.00 0.00 0.00
20260505051018 0 0.0 0.0 0.00 0.00 0.00
20260505050518 0 0.0 0.0 0.00 0.00 0.00
20260505041517 72 68 9.6 13.9 0.00 0.00 0.00 38 1019.4
20260505041017 72 68 9.6 13.9 0.00 0.00 0.00 38 1019.5
20260505040517 72 68 11.3 18.2 0.00 0.00 0.00 37 1019.5
20260505040006 72 68 11.3 16.5 0.00 0.00 0.00 39 1019.6
20260505035518 71 45 11.3 17.4 0.00 0.00 0.00 40 1019.7
20260505035017 71 68 11.3 15.6 0.00 0.00 0.00 40 1019.9
20260505034517 71 68 12.2 16.5 0.00 0.00 0.00 40 1019.8
20260505034017 71 68 12.2 16.5 0.00 0.00 0.00 41 1020.0
20260505033517 71 68 11.3 15.6 0.00 0.00 0.00 42 1019.9
20260505033035 70 68 11.3 14.8 0.00 0.00 0.00 42 1019.9
20260505032517 70 45 13.0 18.2 0.00 0.00 0.00 42 1020.1
20260505032017 70 45 12.2 16.5 0.00 0.00 0.00 42 1020.2
20260505031517 71 68 11.3 20.0 0.00 0.00 0.00 42 1020.1
20260505031017 70 45 11.3 16.5 0.00 0.00 0.00 43 1020.2
20260505030539 70 45 11.3 17.4 0.00 0.00 0.00 44 1020.3
20260505030007 70 45 12.2 15.6 0.00 0.00 0.00 44 1020.4
20260505025517 69 45 12.2 14.8 0.00 0.00 0.00 44 1020.3
20260505025017 70 45 13.0 18.2 0.00 0.00 0.00 43 1020.3
20260505024517 70 45 11.3 16.5 0.00 0.00 0.00 44 1020.5
20260505024017 69 45 12.2 18.2 0.00 0.00 0.00 44 1020.5
20260505023538 69 68 12.2 17.4 0.00 0.00 0.00 44 1020.4
20260505023007 70 68 13.9 18.2 0.00 0.00 0.00 44 1020.4
20260505022517 70 68 13.9 18.2 0.00 0.00 0.00 43 1020.6
20260505022017 70 68 13.0 19.1 0.00 0.00 0.00 44 1020.6
20260505021517 69 68 12.2 17.4 0.00 0.00 0.00 45 1020.7
20260505021017 69 68 13.0 18.2 0.00 0.00 0.00 45 1020.7
20260505020517 69 68 12.2 17.4 0.00 0.00 0.00 46 1020.8
20260505020010 68 45 13.0 16.5 0.00 0.00 0.00 47 1020.8
20260505015518 67 68 13.0 17.4 0.00 0.00 0.00 48 1020.8
20260505015017 67 68 13.0 17.4 0.00 0.00 0.00 49 1020.8
20260505014517 66 68 12.2 18.2 0.00 0.00 0.00 49 1020.8
20260505014119 66 68 13.0 17.4 0.00 0.00 0.00 50 1020.8